DELTA 1 DEB, 7892

Orbit data source: Space-Track

DELTA 1 DEB, 7892 is space debris in SSO originally from a launch on Sun, 23 Jul 1972 UTC launched from the Air Force Western Test Range (AFWTR). Debris objects in space refer to the collection of defunct objects orbiting the Earth. Examples of debris include non-operational satellites, rocket bodies, and fragments generated from explosions, collisions, or faulty payload assembly.

Loading next visibility...
Identifier
7892, 1972-058BJ
Orbit
SSO
Country
Flag of USUS
Related business
Manufacturer
Unknown
Mission
Spacecraft
Bus & Motor
Unknown
Mass
Unknown
Launch date (UTC)
1972-07-23 (54 years ago)
Launch vehicle
Unknown
Launch site
Air Force Western Test Range (AFWTR)
Object type
Payload
Rocket body
Debris
Shape & HBR
Unknown shape, 0.1 m
Radar Cross Section
Medium (>0.1 m² and <1 m²)

Expand to show TLE details & history
Last TLE update: 1 week ago

TLE from 1 week ago
0 DELTA 1 DEB
1  7892U 72058BJ  26153.92334934  .00001690  00000-0  25078-3 0  9993
2  7892  98.6057 104.9539 0097516 128.2111 232.7925 14.73355463683051
Epoch: 2026-06-02T22:09Z
TLE epoch observation values (Epoch: 2026-06-02T22:09:37.382Z)
Latitude
-0.0001°
Longitude
-118.8412°
Altitude
695.243 km
Speed
7.486 km/s
True Right ascension
06h 59m 48s
True Declination
0° 00' 00"
Sunlit
Object was in daylight at epoch
Visualization orbit readout
Latitude
Unknown
Longitude
Unknown
Altitude
Unknown
Speed
Unknown
Apparent Right ascension
Unknown
Apparent Declination
Unknown
Sunlit
N/A
Visualization observer readout
Local Sidereal Time
17:08:01
Azimuth
Unknown
Elevation
Unknown
Doppler factor
Unknown
Orbital elements
Apogee altitude
715.969 km
Perigee altitude
578.948 km
Semi-major axis
7,025.596 km
Eccentricity
0.00975
Inclination
98.6057°
RAAN
104.9539°
Arg. of periapsis
128.2111°
True anomaly
231.90905°
Mean anomaly
232.7925°
Eccentric anomaly
232.35012°
Mean motion
3.68569 °/min
Orbital period
97.68 mins
BSTAR
0.00025078
Loading maneuver chart data...
Computing Atmospheric mass density...
Loading historical data...
Loading historical data...
Loading historical data...
Loading historical data...
Loading historical data...
Loading historical data...
Loading historical data...

Documentation

Showing up to 5 results
|